Location: Fort Wayne
(41.1310°N, 85.1290°W)
Time: 21:43:39
(UTC-04:00)

Daily predictions for brighter satellites

Satellite Brightness Start Highest point End
(mag) Time Altitude Azimuth Time Altitude Azimuth Time Altitude Azimuth
Cosmos 2058 Rocket 4.4 21:40:33 10° NNW 21:44:43 41° W 21:48:50 10° SSW
NOSS 2-3 (E) 3.8 21:40:58 10° SSW 21:45:25 65° ESE 21:50:33 10° NE
Cosmos 1733 3.4 21:42:15 10° NNW 21:46:02 74° W 21:49:47 10° S
Cosmos 2263 Rocket 2.3 21:47:07 10° SSW 21:52:49 88° ESE 21:58:31 10° NNE
BREEZE-M R/B 2.6 21:49:57 10° WNW 21:53:32 52° SW 21:55:58 10° SE
Cosmos 1603 4.4 21:48:10 10° NNW 21:53:43 54° WSW 21:59:16 10° S
ATLAS 2AS CENTAUR R/B 3.8 21:49:15 10° SSE 21:55:40 29° ESE 22:02:20 10° NE
Cosmos 1655 Rocket 4.4 21:51:39 10° NNW 21:57:54 71° W 22:04:04 10° S
Cosmos 1315 Rocket 3.8 21:57:43 10° SSE 22:01:16 30° E 22:04:51 10° NNE
Cosmos 1953 2.9 21:58:48 10° NNW 22:02:44 58° W 22:06:39 10° S
Cosmos 1707 2.9 22:03:38 10° SSW 22:07:30 75° W 22:11:22 10° N
Cosmos 1825 Rocket 3.9 22:04:47 10° SSE 22:09:05 49° E 22:13:24 10° NNE
ERS-1 Rocket 3.8 22:06:49 10° SE 22:11:18 37° ENE 22:15:54 10° N
Helios 1B rocket 4.5 22:10:23 10° ENE 22:11:35 11° E 22:12:46 10° ESE
SPOT 5 4.3 22:10:48 11° ESE 22:14:47 26° ENE 22:19:05 10° N
Cosmos 1048 Rocket 4.2 22:09:52 10° S 22:14:57 51° ESE 22:20:08 10° NNE
Iridium 4 Rocket 3.7 22:10:47 10° S 22:16:29 65° E 22:21:49 10° N
Cosmos 2266 Rocket 4.1 22:12:52 10° N 22:19:19 89° ENE 22:25:39 10° S
Lacrosse 5 2.1 22:16:53 10° SSW 22:21:43 47° SE 22:26:34 10° NE
NOSS 2-3 (C) 4.5 22:19:37 10° SW 22:24:08 61° NW 22:29:26 10° NNE
Cosmos 1238 Rocket 2.6 22:23:37 16° SSE 22:25:41 38° E 22:28:28 10° NNE
Cosmos 1674 4.0 22:25:59 16° SE 22:27:54 24° E 22:31:00 10° NE
USA 215 4.2 22:22:30 10° SSE 22:28:29 38° SW 22:34:31 10° WNW
Aureole 1 Rocket 2.2 22:26:10 10° SSW 22:29:13 79° ESE 22:32:50 10° NNE
MetOp-B 4.1 22:26:20 12° SSE 22:31:21 78° ENE 22:36:43 10° N
Cosmos 1400 Rocket 3.8 22:27:31 10° SSW 22:31:26 48° WNW 22:35:20 10° N
Cosmos 1452 Rocket 3.8 22:29:17 10° NNW 22:34:32 66° WSW 22:39:27 12° S
Cosmos 1943 4.3 22:32:25 10° NW 22:37:39 39° WSW 22:42:50 10° S
Cosmos 1420 Rocket 4.2 22:32:47 10° NNW 22:37:57 70° WSW 22:42:29 13° S
Cosmos 2278 Rocket 3.9 22:38:39 13° ESE 22:39:37 14° E 22:42:18 10° ENE
Cosmos 1346 Rocket 3.0 22:40:23 10° N 22:44:18 54° ENE 22:46:37 23° SSE
COSMOS 2406 4.3 22:39:36 10° N 22:44:46 33° ENE 22:48:35 16° ESE
BREEZE-M DEB (TANK) 3.4 22:35:01 10° SW 22:45:46 90° SSE 22:49:05 10° ENE
SPOT 1/Viking Rocket 3.9 22:43:54 19° SE 22:47:19 50° ENE 22:52:16 10° N
H-2A R/B 2.2 22:43:05 13° S 22:47:46 76° WSW 22:53:10 10° NNW
Cosmos 1553 Rocket 4.3 22:44:40 17° SSE 22:49:01 45° E 22:54:46 10° NNE
Cosmos 1110 Rocket 4.4 22:51:09 10° N 22:56:10 48° ENE 22:59:03 23° SE
ARGOS 3.8 22:51:36 10° S 22:56:51 51° W 23:02:09 10° NNW
Cosmos 1726 3.0 22:53:40 10° N 22:57:08 34° ENE 22:58:22 27° ESE
Cosmos 1844 3.9 22:54:48 13° S 22:59:41 51° ESE 23:05:15 10° NNE
Meteor 1-24 Rocket 3.9 22:53:59 10° S 23:00:00 84° W 23:06:05 10° N
SL-8 R/B 3.8 22:55:26 10° SW 23:00:04 49° SE 23:04:44 10° ENE
DMSP B5D2-2 4.0 22:55:24 10° NNE 23:00:40 78° ESE 23:05:19 13° S
KORONAS-FOTON 4.1 23:01:18 30° SSE 23:02:52 49° E 23:06:40 10° NNE
Cosmos-2242 3.0 22:58:48 10° N 23:03:12 85° W 23:05:52 24° S
OAO 3 Rocket 3.7 22:58:49 10° WSW 23:03:25 39° S 23:05:27 26° SE
Cosmos 1269 Rocket 4.1 22:58:15 10° SSW 23:03:34 84° WNW 23:08:54 10° NNE
Cosmos 1842 Rocket 4.4 23:00:04 10° N 23:04:03 34° ENE 23:05:36 26° ESE
Cosmos 1844 Rocket 2.6 23:00:41 10° SSW 23:06:19 77° ESE 23:12:00 10° NNE
IGS 5A 4.1 23:05:01 28° ESE 23:06:40 42° ENE 23:10:36 10° N
Cosmos 1437 3.1 23:04:46 10° NNW 23:07:54 58° W 23:09:11 30° SSW
Landsat 7 3.9 23:07:17 28° SSE 23:09:45 65° ENE 23:14:28 10° N
Cosmos 1331 Rocket 4.2 23:07:25 10° NNW 23:12:34 60° ENE 23:15:07 29° SE
Cosmos 2084 3.1 23:13:55 10° NW 23:17:47 85° NE 23:19:00 42° SE
USA 238 DEB 4.0 23:11:57 10° NNW 23:19:04 67° NE 23:23:31 25° SE
USA 238 4.0 23:12:03 10° NNW 23:19:10 66° NE 23:23:37 25° SE
CZ-2C R/B 3.7 23:18:55 27° SE 23:21:50 51° ENE 23:27:26 10° N
Cosmos 494 Rocket 3.9 23:18:57 17° SSW 23:23:05 84° ESE 23:28:23 10° NNE
ATLAS 3B R/B 3.0 23:18:34 10° NNW 23:25:05 54° NE 23:28:56 24° ESE
Meteor 2-1 Rocket 4.3 23:19:46 10° N 23:25:43 84° W 23:29:07 27° S
Cosmos 1908 3.4 23:22:19 10° NNW 23:26:09 65° W 23:27:37 35° SSW
Cosmos 2082 Rocket 4.2 23:22:45 10° N 23:26:29 17° NE 23:30:13 10° E
Helios 1A 3.3 23:26:52 31° S 23:28:41 60° WSW 23:32:51 10° NNW
Terra 1.9 23:27:13 36° SE 23:29:05 67° ENE 23:33:49 10° N
ATLAS 5 CENTAUR R/B 3.7 23:32:31 13° E 23:32:31 13° E 23:33:36 10° ENE
NOSS 3-2 (A) 4.4 23:25:54 10° NNW 23:33:18 57° NE 23:38:29 23° ESE
Cosmos 2251 Rocket 3.7 23:33:43 35° SSE 23:35:42 55° ESE 23:40:55 10° NNE
Cosmos 1833 Rocket 4.4 23:31:55 10° N 23:36:13 22° NE 23:39:19 15° E
Cosmos 1302 Rocket 4.3 23:33:01 10° NNW 23:38:15 56° ENE 23:40:10 36° SE
Spot 1 4.0 23:41:53 46° S 23:43:09 86° W 23:47:39 10° NNW
Cosmos 1745 Rocket 4.0 23:37:16 10° N 23:43:39 87° W 23:46:47 32° S
ATLAS 2AS CENTAUR R/B 3.4 23:38:19 10° SW 23:46:07 68° NW 23:54:15 10° NNE
Helios 1B rocket 2.9 23:43:10 10° N 23:47:13 57° WNW 23:49:09 28° SW
Cosmos 2221 2.6 23:48:13 10° N 23:52:31 60° E 23:53:10 53° ESE
SPOT 5 4.0 23:50:02 23° SSW 23:52:37 38° W 23:57:27 10° NNW
CZ-2C R/B 2.7 23:47:35 10° NNE 23:53:00 61° E 23:54:35 43° SSE
Cosmos 1340 3.1 23:49:20 10° NNW 23:53:03 54° W 23:53:42 47° SW
Cosmos 1626 2.8 23:56:30 42° ENE 23:56:30 42° ENE 23:59:41 10° NNE
